Year,Month,Day,Hour,Minute,Value (Times are PST for temperature in C)
2009,05,03,00,00,9.00
2009,05,03,00,01,9.00
2009,05,03,00,02,9.00
2009,05,03,00,03,9.00
2009,05,03,00,04,8.90
2009,05,03,00,05,8.80
2009,05,03,00,06,8.80
2009,05,03,00,07,8.80
2009,05,03,00,08,8.90
2009,05,03,00,09,9.00
2009,05,03,00,10,9.00
2009,05,03,00,11,9.10
2009,05,03,00,12,9.10
2009,05,03,00,13,9.20
2009,05,03,00,14,9.20
2009,05,03,00,15,9.30
2009,05,03,00,16,9.30
2009,05,03,00,17,9.40
2009,05,03,00,18,9.40
2009,05,03,00,19,9.40
2009,05,03,00,20,9.40
2009,05,03,00,21,9.40
2009,05,03,00,22,9.40
2009,05,03,00,23,9.40
2009,05,03,00,24,9.40
2009,05,03,00,25,9.30
2009,05,03,00,26,9.30
2009,05,03,00,27,9.30
2009,05,03,00,28,9.30
2009,05,03,00,29,9.30
2009,05,03,00,30,9.30
2009,05,03,00,31,9.30
2009,05,03,00,32,9.30
2009,05,03,00,33,9.20
2009,05,03,00,34,9.20
2009,05,03,00,35,9.20
2009,05,03,00,36,9.20
2009,05,03,00,37,9.10
2009,05,03,00,38,9.10
2009,05,03,00,39,9.10
2009,05,03,00,40,9.10
2009,05,03,00,41,9.10
2009,05,03,00,42,9.00
2009,05,03,00,43,9.00
2009,05,03,00,44,8.90
2009,05,03,00,45,8.90
2009,05,03,00,46,8.80
2009,05,03,00,47,8.80
2009,05,03,00,48,8.80
2009,05,03,00,49,8.80
2009,05,03,00,50,8.80
2009,05,03,00,51,8.80
2009,05,03,00,52,8.80
2009,05,03,00,53,8.80
2009,05,03,00,54,8.70
2009,05,03,00,55,8.70
2009,05,03,00,56,8.70
2009,05,03,00,57,8.70
2009,05,03,00,58,8.70
2009,05,03,00,59,8.70
2009,05,03,01,00,8.70
2009,05,03,01,01,8.60
2009,05,03,01,02,8.60
2009,05,03,01,03,8.60
2009,05,03,01,04,8.50
2009,05,03,01,05,8.50
2009,05,03,01,06,8.60
2009,05,03,01,07,8.50
2009,05,03,01,08,8.50
2009,05,03,01,09,8.50
2009,05,03,01,10,8.50
2009,05,03,01,11,8.50
2009,05,03,01,12,8.40
2009,05,03,01,13,8.40
2009,05,03,01,14,8.40
2009,05,03,01,15,8.40
2009,05,03,01,16,8.40
2009,05,03,01,17,8.40
2009,05,03,01,18,8.40
2009,05,03,01,19,8.40
2009,05,03,01,20,8.50
2009,05,03,01,21,8.50
2009,05,03,01,22,8.50
2009,05,03,01,23,8.40
2009,05,03,01,24,8.40
2009,05,03,01,25,8.30
2009,05,03,01,26,8.30
2009,05,03,01,27,8.20
2009,05,03,01,28,8.20
2009,05,03,01,29,8.10
2009,05,03,01,30,8.00
2009,05,03,01,31,8.00
2009,05,03,01,32,7.90
2009,05,03,01,33,7.90
2009,05,03,01,34,7.90
2009,05,03,01,35,8.00
2009,05,03,01,36,8.10
2009,05,03,01,37,8.10
2009,05,03,01,38,8.10
2009,05,03,01,39,8.20
2009,05,03,01,40,8.20
2009,05,03,01,41,8.20
2009,05,03,01,42,8.10
2009,05,03,01,43,8.10
2009,05,03,01,44,8.00
2009,05,03,01,45,7.90
2009,05,03,01,46,7.90
2009,05,03,01,47,7.80
2009,05,03,01,48,7.80
2009,05,03,01,49,7.80
2009,05,03,01,50,7.70
2009,05,03,01,51,7.70
2009,05,03,01,52,7.60
2009,05,03,01,53,7.60
2009,05,03,01,54,7.60
2009,05,03,01,55,7.60
2009,05,03,01,56,7.60
2009,05,03,01,57,7.70
2009,05,03,01,58,7.70
2009,05,03,01,59,7.70
2009,05,03,02,00,7.70
2009,05,03,02,01,7.70
2009,05,03,02,02,7.70
2009,05,03,02,03,7.70
2009,05,03,02,04,7.70
2009,05,03,02,05,7.70
2009,05,03,02,06,7.70
2009,05,03,02,07,7.60
2009,05,03,02,08,7.60
2009,05,03,02,09,7.60
2009,05,03,02,10,7.50
2009,05,03,02,11,7.50
2009,05,03,02,12,7.50
2009,05,03,02,13,7.50
2009,05,03,02,14,7.50
2009,05,03,02,15,7.50
2009,05,03,02,16,7.50
2009,05,03,02,17,7.50
2009,05,03,02,18,7.40
2009,05,03,02,19,7.30
2009,05,03,02,20,7.20
2009,05,03,02,21,7.20
2009,05,03,02,22,7.20
2009,05,03,02,23,7.20
2009,05,03,02,24,7.20
2009,05,03,02,25,7.20
2009,05,03,02,26,7.20
2009,05,03,02,27,7.20
2009,05,03,02,28,7.20
2009,05,03,02,29,7.20
2009,05,03,02,30,7.20
2009,05,03,02,31,7.20
2009,05,03,02,32,7.20
2009,05,03,02,33,7.20
2009,05,03,02,34,7.20
2009,05,03,02,35,7.20
2009,05,03,02,36,7.20
2009,05,03,02,37,7.20
2009,05,03,02,38,7.20
2009,05,03,02,39,7.20
2009,05,03,02,40,7.20
2009,05,03,02,41,7.20
2009,05,03,02,42,7.20
2009,05,03,02,43,7.20
2009,05,03,02,44,7.20
2009,05,03,02,45,7.20
2009,05,03,02,46,7.20
2009,05,03,02,47,7.20
2009,05,03,02,48,7.20
2009,05,03,02,49,7.20
2009,05,03,02,50,7.30
2009,05,03,02,51,7.30
2009,05,03,02,52,7.30
2009,05,03,02,53,7.30
2009,05,03,02,54,7.30
2009,05,03,02,55,7.30
2009,05,03,02,56,7.30
2009,05,03,02,57,7.30
2009,05,03,02,58,7.30
2009,05,03,02,59,7.30
2009,05,03,03,00,7.40
2009,05,03,03,01,7.40
2009,05,03,03,02,7.50
2009,05,03,03,03,7.50
2009,05,03,03,04,7.50
2009,05,03,03,05,7.50
2009,05,03,03,06,7.50
2009,05,03,03,07,7.40
2009,05,03,03,08,7.40
2009,05,03,03,09,7.40
2009,05,03,03,10,7.40
2009,05,03,03,11,7.40
2009,05,03,03,12,7.30
2009,05,03,03,13,7.30
2009,05,03,03,14,7.30
2009,05,03,03,15,7.20
2009,05,03,03,16,7.20
2009,05,03,03,17,7.20
2009,05,03,03,18,7.30
2009,05,03,03,19,7.30
2009,05,03,03,20,7.30
2009,05,03,03,21,7.30
2009,05,03,03,22,7.30
2009,05,03,03,23,7.20
2009,05,03,03,24,7.20
2009,05,03,03,25,7.20
2009,05,03,03,26,7.20
2009,05,03,03,27,7.20
2009,05,03,03,28,7.20
2009,05,03,03,29,7.20
2009,05,03,03,30,7.20
2009,05,03,03,31,7.20
2009,05,03,03,32,7.20
2009,05,03,03,33,7.20
2009,05,03,03,34,7.20
2009,05,03,03,35,7.20
2009,05,03,03,36,7.20
2009,05,03,03,37,7.20
2009,05,03,03,38,7.20
2009,05,03,03,39,7.20
2009,05,03,03,40,7.20
2009,05,03,03,41,7.10
2009,05,03,03,42,7.10
2009,05,03,03,43,7.10
2009,05,03,03,44,7.10
2009,05,03,03,45,7.10
2009,05,03,03,46,7.10
2009,05,03,03,47,7.10
2009,05,03,03,48,7.10
2009,05,03,03,49,7.00
2009,05,03,03,50,7.00
2009,05,03,03,51,7.10
2009,05,03,03,52,7.10
2009,05,03,03,53,7.10
2009,05,03,03,54,7.10
2009,05,03,03,55,7.10
2009,05,03,03,56,7.00
2009,05,03,03,57,6.90
2009,05,03,03,58,6.80
2009,05,03,03,59,6.80
2009,05,03,04,00,6.80
2009,05,03,04,01,6.80
2009,05,03,04,02,6.80
2009,05,03,04,03,6.70
2009,05,03,04,04,6.70
2009,05,03,04,05,6.60
2009,05,03,04,06,6.60
2009,05,03,04,07,6.50
2009,05,03,04,08,6.40
2009,05,03,04,09,6.40
2009,05,03,04,10,6.30
2009,05,03,04,11,6.20
2009,05,03,04,12,6.20
2009,05,03,04,13,6.10
2009,05,03,04,14,6.00
2009,05,03,04,15,6.00
2009,05,03,04,16,5.90
2009,05,03,04,17,5.80
2009,05,03,04,18,5.80
2009,05,03,04,19,5.80
2009,05,03,04,20,5.80
2009,05,03,04,21,5.80
2009,05,03,04,22,5.80
2009,05,03,04,23,5.80
2009,05,03,04,24,5.70
2009,05,03,04,25,5.70
2009,05,03,04,26,5.80
2009,05,03,04,27,5.80
2009,05,03,04,28,5.80
2009,05,03,04,29,5.70
2009,05,03,04,30,5.70
2009,05,03,04,31,5.60
2009,05,03,04,32,5.60
2009,05,03,04,33,5.60
2009,05,03,04,34,5.60
2009,05,03,04,35,5.50
2009,05,03,04,36,5.50
2009,05,03,04,37,5.40
2009,05,03,04,38,5.40
2009,05,03,04,39,5.40
2009,05,03,04,40,5.40
2009,05,03,04,41,5.50
2009,05,03,04,42,5.60
2009,05,03,04,43,5.60
2009,05,03,04,44,5.70
2009,05,03,04,45,5.70
2009,05,03,04,46,5.60
2009,05,03,04,47,5.60
2009,05,03,04,48,5.50
2009,05,03,04,49,5.40
2009,05,03,04,50,5.40
2009,05,03,04,51,5.40
2009,05,03,04,52,5.40
2009,05,03,04,53,5.40
2009,05,03,04,54,5.40
2009,05,03,04,55,5.50
2009,05,03,04,56,5.50
2009,05,03,04,57,5.50
2009,05,03,04,58,5.50
2009,05,03,04,59,5.50
2009,05,03,05,00,5.50
2009,05,03,05,01,5.50
2009,05,03,05,02,5.40
2009,05,03,05,03,5.40
2009,05,03,05,04,5.40
2009,05,03,05,05,5.40
2009,05,03,05,06,5.40
2009,05,03,05,07,5.40
2009,05,03,05,08,5.40
2009,05,03,05,09,5.40
2009,05,03,05,10,5.40
2009,05,03,05,11,5.40
2009,05,03,05,12,5.40
2009,05,03,05,13,5.40
2009,05,03,05,14,5.40
2009,05,03,05,15,5.40
2009,05,03,05,16,5.40
2009,05,03,05,17,5.40
2009,05,03,05,18,5.40
2009,05,03,05,19,5.40
2009,05,03,05,20,5.30
2009,05,03,05,21,5.30
2009,05,03,05,22,5.30
2009,05,03,05,23,5.30
2009,05,03,05,24,5.30
2009,05,03,05,25,5.20
2009,05,03,05,26,5.20
2009,05,03,05,27,5.30
2009,05,03,05,28,5.20
2009,05,03,05,29,5.20
2009,05,03,05,30,5.10
2009,05,03,05,31,5.10
2009,05,03,05,32,5.10
2009,05,03,05,33,5.10
2009,05,03,05,34,5.10
2009,05,03,05,35,5.10
2009,05,03,05,36,5.10
2009,05,03,05,37,5.20
2009,05,03,05,38,5.20
2009,05,03,05,39,5.30
2009,05,03,05,40,5.30
2009,05,03,05,41,5.30
2009,05,03,05,42,5.30
2009,05,03,05,43,5.40
2009,05,03,05,44,5.50
2009,05,03,05,45,5.60
2009,05,03,05,46,5.70
2009,05,03,05,47,5.80
2009,05,03,05,48,5.90
2009,05,03,05,49,5.90
2009,05,03,05,50,6.00
2009,05,03,05,51,6.10
2009,05,03,05,52,6.10
2009,05,03,05,53,6.10
2009,05,03,05,54,6.10
2009,05,03,05,55,6.10
2009,05,03,05,56,6.10
2009,05,03,05,57,6.10
2009,05,03,05,58,6.10
2009,05,03,05,59,6.10
2009,05,03,06,00,6.10
2009,05,03,06,01,6.00
2009,05,03,06,02,5.90
2009,05,03,06,03,5.90
2009,05,03,06,04,5.80
2009,05,03,06,05,5.80
2009,05,03,06,06,5.80
2009,05,03,06,07,5.80
2009,05,03,06,08,5.80
2009,05,03,06,09,5.80
2009,05,03,06,10,5.70
2009,05,03,06,11,5.70
2009,05,03,06,12,5.80
2009,05,03,06,13,5.90
2009,05,03,06,14,6.00
2009,05,03,06,15,6.10
2009,05,03,06,16,6.10
2009,05,03,06,17,6.20
2009,05,03,06,18,6.20
2009,05,03,06,19,6.30
2009,05,03,06,20,6.30
2009,05,03,06,21,6.30
2009,05,03,06,22,6.40
2009,05,03,06,23,6.40
2009,05,03,06,24,6.40
2009,05,03,06,25,6.40
2009,05,03,06,26,6.30
2009,05,03,06,27,6.30
2009,05,03,06,28,6.30
2009,05,03,06,29,6.30
2009,05,03,06,30,6.30
2009,05,03,06,31,6.30
2009,05,03,06,32,6.40
2009,05,03,06,33,6.40
2009,05,03,06,34,6.40
2009,05,03,06,35,6.50
2009,05,03,06,36,6.50
2009,05,03,06,37,6.60
2009,05,03,06,38,6.60
2009,05,03,06,39,6.70
2009,05,03,06,40,6.70
2009,05,03,06,41,6.70
2009,05,03,06,42,6.70
2009,05,03,06,43,6.70
2009,05,03,06,44,6.80
2009,05,03,06,45,6.80
2009,05,03,06,46,6.80
2009,05,03,06,47,6.80
2009,05,03,06,48,6.90
2009,05,03,06,49,6.90
2009,05,03,06,50,6.90
2009,05,03,06,51,6.90
2009,05,03,06,52,6.90
2009,05,03,06,53,7.00
2009,05,03,06,54,7.00
2009,05,03,06,55,7.00
2009,05,03,06,56,7.10
2009,05,03,06,57,7.10
2009,05,03,06,58,7.10
2009,05,03,06,59,7.20
2009,05,03,07,00,7.20
2009,05,03,07,01,7.20
2009,05,03,07,02,7.30
2009,05,03,07,03,7.30
2009,05,03,07,04,7.40
2009,05,03,07,05,7.50
2009,05,03,07,06,7.50
2009,05,03,07,07,7.60
2009,05,03,07,08,7.70
2009,05,03,07,09,7.70
2009,05,03,07,10,7.80
2009,05,03,07,11,7.90
2009,05,03,07,12,7.90
2009,05,03,07,13,8.00
2009,05,03,07,14,8.10
2009,05,03,07,15,8.20
2009,05,03,07,16,8.30
2009,05,03,07,17,8.40
2009,05,03,07,18,8.50
2009,05,03,07,19,8.60
2009,05,03,07,20,8.60
2009,05,03,07,21,8.60
2009,05,03,07,22,8.50
2009,05,03,07,23,8.50
2009,05,03,07,24,8.40
2009,05,03,07,25,8.40
2009,05,03,07,26,8.40
2009,05,03,07,27,8.30
2009,05,03,07,28,8.20
2009,05,03,07,29,8.20
2009,05,03,07,30,8.10
2009,05,03,07,31,8.00
2009,05,03,07,32,7.90
2009,05,03,07,33,7.80
2009,05,03,07,34,7.70
2009,05,03,07,35,7.70
2009,05,03,07,36,7.60
2009,05,03,07,37,7.60
2009,05,03,07,38,7.60
2009,05,03,07,39,7.60
2009,05,03,07,40,7.60
2009,05,03,07,41,7.60
2009,05,03,07,42,7.60
2009,05,03,07,43,7.60
2009,05,03,07,44,7.60
2009,05,03,07,45,7.60
2009,05,03,07,46,7.60
2009,05,03,07,47,7.60
2009,05,03,07,48,7.70
2009,05,03,07,49,7.70
2009,05,03,07,50,7.80
2009,05,03,07,51,7.80
2009,05,03,07,52,7.80
2009,05,03,07,53,7.90
2009,05,03,07,54,7.90
2009,05,03,07,55,7.90
2009,05,03,07,56,7.90
2009,05,03,07,57,7.90
2009,05,03,07,58,7.90
2009,05,03,07,59,7.90
2009,05,03,08,00,8.00
2009,05,03,08,01,8.00
2009,05,03,08,02,8.10
2009,05,03,08,03,8.10
2009,05,03,08,04,8.10
2009,05,03,08,05,8.20
2009,05,03,08,06,8.20
2009,05,03,08,07,8.20
2009,05,03,08,08,8.30
2009,05,03,08,09,8.30
2009,05,03,08,10,8.40
2009,05,03,08,11,8.50
2009,05,03,08,12,8.60
2009,05,03,08,13,8.60
2009,05,03,08,14,8.70
2009,05,03,08,15,8.80
2009,05,03,08,16,8.90
2009,05,03,08,17,8.90
2009,05,03,08,18,9.00
2009,05,03,08,19,9.10
2009,05,03,08,20,9.20
2009,05,03,08,21,9.30
2009,05,03,08,22,9.30
2009,05,03,08,23,9.40
2009,05,03,08,24,9.50
2009,05,03,08,25,9.60
2009,05,03,08,26,9.60
2009,05,03,08,27,9.70
2009,05,03,08,28,9.80
2009,05,03,08,29,9.90
2009,05,03,08,30,10.00
2009,05,03,08,31,10.10
2009,05,03,08,32,10.10
2009,05,03,08,33,10.20
2009,05,03,08,34,10.20
2009,05,03,08,35,10.10
2009,05,03,08,36,10.00
2009,05,03,08,37,10.00
2009,05,03,08,38,10.00
2009,05,03,08,39,10.00
2009,05,03,08,40,10.00
2009,05,03,08,41,10.00
2009,05,03,08,42,10.00
2009,05,03,08,43,10.10
2009,05,03,08,44,10.10
2009,05,03,08,45,10.10
2009,05,03,08,46,10.10
2009,05,03,08,47,10.10
2009,05,03,08,48,10.10
2009,05,03,08,49,10.10
2009,05,03,08,50,10.20
2009,05,03,08,51,10.20
2009,05,03,08,52,10.20
2009,05,03,08,53,10.20
2009,05,03,08,54,10.20
2009,05,03,08,55,10.30
2009,05,03,08,56,10.30
2009,05,03,08,57,10.30
2009,05,03,08,58,10.30
2009,05,03,08,59,10.30
2009,05,03,09,00,10.30
2009,05,03,09,01,10.30
2009,05,03,09,02,10.30
2009,05,03,09,03,10.30
2009,05,03,09,04,10.30
2009,05,03,09,05,10.40
2009,05,03,09,06,10.50
2009,05,03,09,07,10.50
2009,05,03,09,08,10.60
2009,05,03,09,09,10.70
2009,05,03,09,10,10.70
2009,05,03,09,11,10.80
2009,05,03,09,12,10.80
2009,05,03,09,13,10.70
2009,05,03,09,14,10.70
2009,05,03,09,15,10.70
2009,05,03,09,16,10.80
2009,05,03,09,17,10.80
2009,05,03,09,18,10.90
2009,05,03,09,19,11.00
2009,05,03,09,20,11.00
2009,05,03,09,21,11.10
2009,05,03,09,22,11.10
2009,05,03,09,23,11.10
2009,05,03,09,24,11.10
2009,05,03,09,25,11.10
2009,05,03,09,26,11.10
2009,05,03,09,27,11.00
2009,05,03,09,28,11.00
2009,05,03,09,29,11.00
2009,05,03,09,30,10.90
2009,05,03,09,31,10.80
2009,05,03,09,32,10.80
2009,05,03,09,33,10.70
2009,05,03,09,34,10.70
2009,05,03,09,35,10.60
2009,05,03,09,36,10.60
2009,05,03,09,37,10.60
2009,05,03,09,38,10.70
2009,05,03,09,39,10.70
2009,05,03,09,40,10.80
2009,05,03,09,41,10.80
2009,05,03,09,42,10.90
2009,05,03,09,43,11.00
2009,05,03,09,44,11.20
2009,05,03,09,45,11.30
2009,05,03,09,46,11.40
2009,05,03,09,47,11.50
2009,05,03,09,48,11.60
2009,05,03,09,49,11.60
2009,05,03,09,50,11.60
2009,05,03,09,51,11.70
2009,05,03,09,52,11.80
2009,05,03,09,53,11.80
2009,05,03,09,54,11.80
2009,05,03,09,55,11.80
2009,05,03,09,56,11.80
2009,05,03,09,57,11.80
2009,05,03,09,58,11.80
2009,05,03,09,59,11.80
2009,05,03,10,00,11.80
2009,05,03,10,01,11.70
2009,05,03,10,02,11.70
2009,05,03,10,03,11.60
2009,05,03,10,04,11.50
2009,05,03,10,05,11.40
2009,05,03,10,06,11.40
2009,05,03,10,07,11.30
2009,05,03,10,08,11.40
2009,05,03,10,09,11.40
2009,05,03,10,10,11.40
2009,05,03,10,11,11.50
2009,05,03,10,12,11.50
2009,05,03,10,13,11.50
2009,05,03,10,14,11.50
2009,05,03,10,15,11.50
2009,05,03,10,16,11.40
2009,05,03,10,17,11.40
2009,05,03,10,18,11.40
2009,05,03,10,19,11.40
2009,05,03,10,20,11.50
2009,05,03,10,21,11.60
2009,05,03,10,22,11.60
2009,05,03,10,23,11.60
2009,05,03,10,24,11.60
2009,05,03,10,25,11.60
2009,05,03,10,26,11.60
2009,05,03,10,27,11.70
2009,05,03,10,28,11.70
2009,05,03,10,29,11.80
2009,05,03,10,30,11.90
2009,05,03,10,31,12.00
2009,05,03,10,32,12.10
2009,05,03,10,33,12.10
2009,05,03,10,34,12.10
2009,05,03,10,35,12.20
2009,05,03,10,36,12.20
2009,05,03,10,37,12.20
2009,05,03,10,38,12.30
2009,05,03,10,39,12.40
2009,05,03,10,40,12.50
2009,05,03,10,41,12.60
2009,05,03,10,42,12.70
2009,05,03,10,43,12.70
2009,05,03,10,44,12.80
2009,05,03,10,45,12.80
2009,05,03,10,46,12.70
2009,05,03,10,47,12.50
2009,05,03,10,48,12.40
2009,05,03,10,49,12.20
2009,05,03,10,50,12.10
2009,05,03,10,51,11.90
2009,05,03,10,52,11.70
2009,05,03,10,53,11.60
2009,05,03,10,54,11.60
2009,05,03,10,55,11.50
2009,05,03,10,56,11.50
2009,05,03,10,57,11.50
2009,05,03,10,58,11.50
2009,05,03,10,59,11.40
2009,05,03,11,00,11.40
2009,05,03,11,01,11.30
2009,05,03,11,02,11.10
2009,05,03,11,03,11.00
2009,05,03,11,04,10.90
2009,05,03,11,05,10.80
2009,05,03,11,06,10.80
2009,05,03,11,07,10.80
2009,05,03,11,08,10.80
2009,05,03,11,09,10.80
2009,05,03,11,10,10.90
2009,05,03,11,11,10.90
2009,05,03,11,12,10.90
2009,05,03,11,13,11.00
2009,05,03,11,14,11.10
2009,05,03,11,15,11.10
2009,05,03,11,16,11.20
2009,05,03,11,17,11.20
2009,05,03,11,18,11.20
2009,05,03,11,19,11.20
2009,05,03,11,20,11.20
2009,05,03,11,21,11.20
2009,05,03,11,22,11.20
2009,05,03,11,23,11.10
2009,05,03,11,24,11.10
2009,05,03,11,25,11.20
2009,05,03,11,26,11.30
2009,05,03,11,27,11.30
2009,05,03,11,28,11.40
2009,05,03,11,29,11.50
2009,05,03,11,30,11.50
2009,05,03,11,31,11.60
2009,05,03,11,32,11.60
2009,05,03,11,33,11.60
2009,05,03,11,34,11.50
2009,05,03,11,35,11.40
2009,05,03,11,36,11.30
2009,05,03,11,37,11.20
2009,05,03,11,38,11.10
2009,05,03,11,39,11.10
2009,05,03,11,40,11.10
2009,05,03,11,41,11.00
2009,05,03,11,42,11.00
2009,05,03,11,43,11.00
2009,05,03,11,44,11.00
2009,05,03,11,45,11.10
2009,05,03,11,46,11.20
2009,05,03,11,47,11.20
2009,05,03,11,48,11.30
2009,05,03,11,49,11.30
2009,05,03,11,50,11.40
2009,05,03,11,51,11.40
2009,05,03,11,52,11.40
2009,05,03,11,53,11.40
2009,05,03,11,54,11.40
2009,05,03,11,55,11.40
2009,05,03,11,56,11.40
2009,05,03,11,57,11.40
2009,05,03,11,58,11.40
2009,05,03,11,59,11.40
2009,05,03,12,00,11.50
2009,05,03,12,01,11.50
2009,05,03,12,02,11.60
2009,05,03,12,03,11.60
2009,05,03,12,04,11.60
2009,05,03,12,05,11.70
2009,05,03,12,06,11.80
2009,05,03,12,07,11.80
2009,05,03,12,08,11.80
2009,05,03,12,09,11.80
2009,05,03,12,10,11.80
2009,05,03,12,11,11.80
2009,05,03,12,12,11.90
2009,05,03,12,13,11.90
2009,05,03,12,14,11.90
2009,05,03,12,15,11.90
2009,05,03,12,16,12.00
2009,05,03,12,17,12.00
2009,05,03,12,18,12.00
2009,05,03,12,19,12.00
2009,05,03,12,20,12.00
2009,05,03,12,21,11.90
2009,05,03,12,22,11.90
2009,05,03,12,23,11.90
2009,05,03,12,24,11.80
2009,05,03,12,25,11.90
2009,05,03,12,26,11.90
2009,05,03,12,27,12.00
2009,05,03,12,28,12.00
2009,05,03,12,29,12.10
2009,05,03,12,30,12.20
2009,05,03,12,31,12.30
2009,05,03,12,32,12.30
2009,05,03,12,33,12.30
2009,05,03,12,34,12.30
2009,05,03,12,35,12.30
2009,05,03,12,36,12.30
2009,05,03,12,37,12.20
2009,05,03,12,38,12.10
2009,05,03,12,39,12.10
2009,05,03,12,40,12.10
2009,05,03,12,41,12.10
2009,05,03,12,42,12.10
2009,05,03,12,43,12.20
2009,05,03,12,44,12.20
2009,05,03,12,45,12.30
2009,05,03,12,46,12.20
2009,05,03,12,47,12.20
2009,05,03,12,48,12.20
2009,05,03,12,49,12.30
2009,05,03,12,50,12.30
2009,05,03,12,51,12.30
2009,05,03,12,52,12.30
2009,05,03,12,53,12.20
2009,05,03,12,54,12.10
2009,05,03,12,55,12.00
2009,05,03,12,56,11.90
2009,05,03,12,57,11.80
2009,05,03,12,58,11.60
2009,05,03,12,59,11.50
2009,05,03,13,00,11.40
2009,05,03,13,01,11.30
2009,05,03,13,02,11.30
2009,05,03,13,03,11.30
2009,05,03,13,04,11.40
2009,05,03,13,05,11.40
2009,05,03,13,06,11.40
2009,05,03,13,07,11.40
2009,05,03,13,08,11.50
2009,05,03,13,09,11.50
2009,05,03,13,10,11.50
2009,05,03,13,11,11.60
2009,05,03,13,12,11.60
2009,05,03,13,13,11.60
2009,05,03,13,14,11.50
2009,05,03,13,15,11.50
2009,05,03,13,16,11.50
2009,05,03,13,17,11.50
2009,05,03,13,18,11.50
2009,05,03,13,19,11.50
2009,05,03,13,20,11.60
2009,05,03,13,21,11.60
2009,05,03,13,22,11.60
2009,05,03,13,23,11.60
2009,05,03,13,24,11.60
2009,05,03,13,25,11.60
2009,05,03,13,26,11.70
2009,05,03,13,27,11.70
2009,05,03,13,28,11.70
2009,05,03,13,29,11.80
2009,05,03,13,30,11.80
2009,05,03,13,31,11.80
2009,05,03,13,32,11.80
2009,05,03,13,33,11.80
2009,05,03,13,34,11.90
2009,05,03,13,35,12.00
2009,05,03,13,36,12.00
2009,05,03,13,37,12.10
2009,05,03,13,38,12.20
2009,05,03,13,39,12.30
2009,05,03,13,40,12.40
2009,05,03,13,41,12.40
2009,05,03,13,42,12.40
2009,05,03,13,43,12.40
2009,05,03,13,44,12.40
2009,05,03,13,45,12.40
2009,05,03,13,46,12.30
2009,05,03,13,47,12.30
2009,05,03,13,48,12.30
2009,05,03,13,49,12.30
2009,05,03,13,50,12.20
2009,05,03,13,51,12.20
2009,05,03,13,52,12.10
2009,05,03,13,53,12.00
2009,05,03,13,54,12.00
2009,05,03,13,55,12.00
2009,05,03,13,56,12.00
2009,05,03,13,57,12.00
2009,05,03,13,58,12.10
2009,05,03,13,59,12.20
2009,05,03,14,00,12.30
2009,05,03,14,01,12.40
2009,05,03,14,02,12.40
2009,05,03,14,03,12.50
2009,05,03,14,04,12.60
2009,05,03,14,05,12.60
2009,05,03,14,06,12.60
2009,05,03,14,07,12.70
2009,05,03,14,08,12.70
2009,05,03,14,09,12.70
2009,05,03,14,10,12.70
2009,05,03,14,11,12.70
2009,05,03,14,12,12.60
2009,05,03,14,13,12.50
2009,05,03,14,14,12.50
2009,05,03,14,15,12.40
2009,05,03,14,16,12.40
2009,05,03,14,17,12.40
2009,05,03,14,18,12.50
2009,05,03,14,19,12.60
2009,05,03,14,20,12.70
2009,05,03,14,21,12.70
2009,05,03,14,22,12.70
2009,05,03,14,23,12.70
2009,05,03,14,24,12.70
2009,05,03,14,25,12.60
2009,05,03,14,26,12.60
2009,05,03,14,27,12.60
2009,05,03,14,28,12.60
2009,05,03,14,29,12.50
2009,05,03,14,30,12.40
2009,05,03,14,31,12.30
2009,05,03,14,32,12.20
2009,05,03,14,33,12.20
2009,05,03,14,34,12.20
2009,05,03,14,35,12.30
2009,05,03,14,36,12.30
2009,05,03,14,37,12.30
2009,05,03,14,38,12.40
2009,05,03,14,39,12.40
2009,05,03,14,40,12.40
2009,05,03,14,41,12.50
2009,05,03,14,42,12.50
2009,05,03,14,43,12.40
2009,05,03,14,44,12.30
2009,05,03,14,45,12.20
2009,05,03,14,46,12.20
2009,05,03,14,47,12.10
2009,05,03,14,48,12.10
2009,05,03,14,49,12.00
2009,05,03,14,50,12.00
2009,05,03,14,51,12.00
2009,05,03,14,52,11.90
2009,05,03,14,53,11.90
2009,05,03,14,54,11.80
2009,05,03,14,55,11.80
2009,05,03,14,56,11.70
2009,05,03,14,57,11.70
2009,05,03,14,58,11.60
2009,05,03,14,59,11.50
2009,05,03,15,00,11.40
2009,05,03,15,01,11.30
2009,05,03,15,02,11.20
2009,05,03,15,03,11.10
2009,05,03,15,04,11.00
2009,05,03,15,05,10.90
2009,05,03,15,06,10.80
2009,05,03,15,07,10.60
2009,05,03,15,08,10.50
2009,05,03,15,09,10.30
2009,05,03,15,10,10.20
2009,05,03,15,11,10.10
2009,05,03,15,12,10.10
2009,05,03,15,13,10.00
2009,05,03,15,14,9.90
2009,05,03,15,15,9.90
2009,05,03,15,16,10.00
2009,05,03,15,17,10.10
2009,05,03,15,18,10.10
2009,05,03,15,19,10.20
2009,05,03,15,20,10.30
2009,05,03,15,21,10.40
2009,05,03,15,22,10.50
2009,05,03,15,23,10.60
2009,05,03,15,24,10.60
2009,05,03,15,25,10.70
2009,05,03,15,26,10.70
2009,05,03,15,27,10.70
2009,05,03,15,28,10.70
2009,05,03,15,29,10.70
2009,05,03,15,30,10.80
2009,05,03,15,31,10.80
2009,05,03,15,32,10.70
2009,05,03,15,33,10.70
2009,05,03,15,34,10.70
2009,05,03,15,35,10.70
2009,05,03,15,36,10.70
2009,05,03,15,37,10.60
2009,05,03,15,38,10.60
2009,05,03,15,39,10.60
2009,05,03,15,40,10.60
2009,05,03,15,41,10.60
2009,05,03,15,42,10.60
2009,05,03,15,43,10.60
2009,05,03,15,44,10.60
2009,05,03,15,45,10.70
2009,05,03,15,46,10.70
2009,05,03,15,47,10.80
2009,05,03,15,48,10.80
2009,05,03,15,49,10.80
2009,05,03,15,50,10.90
2009,05,03,15,51,10.90
2009,05,03,15,52,10.90
2009,05,03,15,53,11.00
2009,05,03,15,54,11.00
2009,05,03,15,55,11.00
2009,05,03,15,56,11.10
2009,05,03,15,57,11.20
2009,05,03,15,58,11.20
2009,05,03,15,59,11.20
2009,05,03,16,00,11.30
2009,05,03,16,01,11.30
2009,05,03,16,02,11.30
2009,05,03,16,03,11.40
2009,05,03,16,04,11.40
2009,05,03,16,05,11.40
2009,05,03,16,06,11.40
2009,05,03,16,07,11.40
2009,05,03,16,08,11.40
2009,05,03,16,09,11.30
2009,05,03,16,10,11.30
2009,05,03,16,11,11.30
2009,05,03,16,12,11.30
2009,05,03,16,13,11.20
2009,05,03,16,14,11.10
2009,05,03,16,15,10.90
2009,05,03,16,16,10.90
2009,05,03,16,17,10.90
2009,05,03,16,18,10.90
2009,05,03,16,19,10.90
2009,05,03,16,20,11.00
2009,05,03,16,21,11.00
2009,05,03,16,22,11.10
2009,05,03,16,23,11.20
2009,05,03,16,24,11.30
2009,05,03,16,25,11.30
2009,05,03,16,26,11.30
2009,05,03,16,27,11.40
2009,05,03,16,28,11.60
2009,05,03,16,29,11.60
2009,05,03,16,30,11.70
2009,05,03,16,31,11.80
2009,05,03,16,32,11.80
2009,05,03,16,33,11.90
2009,05,03,16,34,11.90
2009,05,03,16,35,11.90
2009,05,03,16,36,12.00
2009,05,03,16,37,11.90
2009,05,03,16,38,12.00
2009,05,03,16,39,12.00
2009,05,03,16,40,12.00
2009,05,03,16,41,12.00
2009,05,03,16,42,12.00
2009,05,03,16,43,11.90
2009,05,03,16,44,11.90
2009,05,03,16,45,11.90
2009,05,03,16,46,11.90
2009,05,03,16,47,11.90
2009,05,03,16,48,11.90
2009,05,03,16,49,11.80
2009,05,03,16,50,11.80
2009,05,03,16,51,11.70
2009,05,03,16,52,11.60
2009,05,03,16,53,11.50
2009,05,03,16,54,11.30
2009,05,03,16,55,11.20
2009,05,03,16,56,11.10
2009,05,03,16,57,10.90
2009,05,03,16,58,10.80
2009,05,03,16,59,10.70
2009,05,03,17,00,10.70
2009,05,03,17,01,10.70
2009,05,03,17,02,10.70
2009,05,03,17,03,10.60
2009,05,03,17,04,10.60
2009,05,03,17,05,10.60
2009,05,03,17,06,10.60
2009,05,03,17,07,10.60
2009,05,03,17,08,10.50
2009,05,03,17,09,10.40
2009,05,03,17,10,10.40
2009,05,03,17,11,10.30
2009,05,03,17,12,10.30
2009,05,03,17,13,10.30
2009,05,03,17,14,10.30
2009,05,03,17,15,10.30
2009,05,03,17,16,10.30
2009,05,03,17,17,10.30
2009,05,03,17,18,10.30
2009,05,03,17,19,10.30
2009,05,03,17,20,10.30
2009,05,03,17,21,10.30
2009,05,03,17,22,10.30
2009,05,03,17,23,10.30
2009,05,03,17,24,10.30
2009,05,03,17,25,10.40
2009,05,03,17,26,10.30
2009,05,03,17,27,10.30
2009,05,03,17,28,10.40
2009,05,03,17,29,10.40
2009,05,03,17,30,10.40
2009,05,03,17,31,10.50
2009,05,03,17,32,10.50
2009,05,03,17,33,10.60
2009,05,03,17,34,10.60
2009,05,03,17,35,10.70
2009,05,03,17,36,10.80
2009,05,03,17,37,10.80
2009,05,03,17,38,10.80
2009,05,03,17,39,10.90
2009,05,03,17,40,10.90
2009,05,03,17,41,11.00